Home > Time Zones > World Clock > Weather > Oman > Seeb > Past weeks

Flag for Oman Weather past 2 weeks in Seeb, Oman

Now
77 °F

Sunny.


Feels Like: 79 °F
Forecast: 67 / 77 °F
Wind: 8 mph from North

Location: International Airport

Current Time: Dec 28, 2014 at 12:56:24 PM

Latest Report: Dec 28, 2014 at 11:50 AM


Visibility: 10 mi

Pressure: 30.07 "Hg

Humidity: 57%

Dew point: 61 °F

Location of SeebLocation

Historic Weather in Seeb — Graph

°F

Seeb temperature yesterday

Maximum temperature yesterday: 77 °F (at 11:50 AM)
Minimum temperature yesterday: 63 °F (at 5:50 AM)
Average temperature yesterday: 71 °F

Past Weeks' High & Low Weather Summary

 TemperatureHumidityPressure
High81 °F (Dec 23, 9:50 AM)88% (Dec 18, 4:50 AM)30.21 "Hg (Dec 18, 4:50 AM)
Low63 °F (Dec 14, 2:50 AM)30% (Dec 23, 9:50 AM)29.89 "Hg (Dec 22, 1:50 PM)
Average72 °F63%30.08 "Hg
* Reported Dec 13 11:50 AM — Dec 28 11:50 AM, Seeb, Weather by CustomWeather, © 2014

Note: Actual official high and low records may vary slightly from our data, if they occured in-between our weather recording intervals... More about our weather records

Advertising

Seeb weather history for previous 24 hours

 ConditionsComfort  
Time TempWeatherWind HumidityBarometerVisibility
11:50 AM
Dec 28
77 °FSunny.8 mph57%30.07 "Hg10 mi
10:50 AM77 °FPassing clouds.5 mph57%30.09 "HgN/A
9:50 AM75 °FPassing clouds.6 mph61%30.12 "HgN/A
8:50 AM73 °FClear.6 mph57%30.12 "Hg5 mi
7:50 AM70 °FClear.5 mph60%30.09 "Hg4 mi
6:50 AM66 °FClear.2 mph73%30.07 "Hg4 mi
5:50 AM64 °FClear.No wind78%30.07 "Hg10 mi
4:50 AM64 °FClear.No wind78%30.04 "Hg10 mi
3:50 AM68 °FPassing clouds.5 mph73%30.04 "HgN/A
2:50 AM66 °FClear.8 mph73%30.04 "Hg10 mi
1:50 AM66 °FClear.6 mph73%30.04 "Hg10 mi
12:50 AM66 °FClear.No wind73%30.04 "Hg10 mi
11:50 PM
Dec 27
68 °FClear.No wind69%30.04 "Hg10 mi
10:50 PM70 °FClear.No wind64%30.04 "Hg10 mi
9:50 PM72 °FClear.No wind65%30.07 "Hg10 mi
8:50 PM72 °FClear.No wind65%30.07 "Hg10 mi
7:50 PM72 °FClear.No wind65%30.07 "Hg10 mi
6:50 PM73 °FClear.1 mph61%30.07 "Hg10 mi
5:50 PM75 °FPassing clouds.5 mph54%30.04 "HgN/A
4:50 PM75 °FPassing clouds.7 mph54%30.04 "HgN/A
3:50 PM77 °FPassing clouds.5 mph51%30.01 "HgN/A
2:50 PM77 °FPassing clouds.35 mph51%30.04 "HgN/A
1:50 PM77 °FPassing clouds.10 mph51%30.04 "HgN/A
12:50 PM77 °FPassing clouds.9 mph47%30.07 "HgN/A
Weather by CustomWeather, © 2014

See weather overviewHow to use our weather pages